Hurghada, Egypt

7:49 AM EET on October 18, 2017 (GMT +0200)
Hurghada

Weather History for HEGN - November, 2012

Change the Weather History Date:

Thursday, November 22, 2012

  Actual Average Record
Temperature  
Mean Temperature 75 °F -  
Max Temperature 82 °F 73 °F 89 °F (2016)
Min Temperature 68 °F 56 °F 57 °F (2007)
Cooling Degree Days 10    
Growing Degree Days 25 (Base 50)    
Moisture  
Dew Point 55 °F    
Average Humidity 50    
Maximum Humidity 64    
Minimum Humidity 28    
Precipitation  
Precipitation 0.00 in - - ()
Sea Level Pressure  
Sea Level Pressure 29.85 in    
Wind  
Wind Speed 6 mph ()    
Max Wind Speed 14 mph    
Max Gust Speed -    
Visibility 6.0 miles    
Events      
Averages and records for this station are not official NWS values.
T = Trace of Precipitation, MM = Missing Value Source: Averaged Metar Reports

Daily Weather History Graph

Daily Weather History Graph

Search for Another Location

Airport or City:

Trip Planner

Search our weather history database for the weather conditions in past years. The results will help you decide how hot, cold, wet, or windy it might be!

Date:

Astronomy

Nov. 22, 2012 Rise Set
Actual Time 6:10 AM EET 4:51 PM EET
Civil Twilight 5:45 AM EET 5:16 PM EET
Nautical Twilight 5:17 AM EET 5:45 PM EET
Astronomical Twilight 4:49 AM EET 6:13 PM EET
Moon 1:01 PM EET (11/22) 12:39 AM EET (11/22)
Length of Visible Light 11h 30m
Length of Day
10h 40m
Waxing Gibbous, 68% of the Moon is Illuminated
Nov 22
Waxing Gibbous
Nov 28
Full
Dec 6
Last Quarter
Dec 13
New
Dec 20
First Quarter

Hourly Weather History & Observations

Time (EET) Temp. Heat Index Dew Point Humidity Pressure Visibility Wind Dir Wind Speed Gust Speed Precip Events Conditions
12:00 AM 71.6 °F - 59.0 °F 64% 29.89 in - NW 5.8 mph - N/A   Clear
1:00 AM 69.8 °F - 55.4 °F 60% 29.86 in - WNW 5.8 mph - N/A   Clear
2:00 AM 69 °F - 56 °F 54% 29.88 in 6 mi WNW 4.6 mph - -   Clear
2:00 AM 69.8 °F - 55.4 °F 60% 29.86 in - WNW 4.6 mph - N/A   Clear
3:00 AM 69.8 °F - 55.4 °F 60% 29.86 in - West 5.8 mph - N/A   Clear
4:00 AM 69.8 °F - 53.6 °F 56% 29.86 in - WNW 4.6 mph - N/A   Clear
5:00 AM 69.8 °F - 53.6 °F 56% 29.86 in - NW 3.5 mph - N/A   Clear
6:00 AM 69.8 °F - 55.4 °F 60% 29.86 in - WNW 5.8 mph - N/A   Clear
7:00 AM 69.8 °F - 48.2 °F 46% 29.89 in - WNW 6.9 mph - N/A   Clear
8:00 AM 74 °F - 47 °F 28% 29.90 in 6 mi NW 11.5 mph - -   Mostly Cloudy
8:00 AM 73.4 °F - 48.2 °F 41% 29.89 in - NW 11.5 mph - N/A   Clear
9:00 AM 77.0 °F - 48.2 °F 36% 29.89 in - NW 8.1 mph - N/A   Clear
10:00 AM 77.0 °F - 50.0 °F 39% 29.89 in - NNW 8.1 mph - N/A   Clear
11:00 AM 80.6 °F - 51.8 °F 37% 29.86 in - NNE 6.9 mph - N/A   Clear
12:00 PM 80.6 °F 81.5 °F 60.8 °F 51% 29.83 in - North 9.2 mph - N/A   Clear
1:00 PM 80.6 °F 81.5 °F 60.8 °F 51% 29.80 in - North 10.4 mph - N/A   Clear
2:00 PM 81 °F - 60 °F 39% 29.81 in 6 mi North 11.5 mph - -   Mostly Cloudy
3:00 PM 82.4 °F 82.9 °F 60.8 °F 48% 29.80 in - NNE 4.6 mph - N/A   Clear
4:00 PM 80.6 °F 81.5 °F 60.8 °F 51% 29.80 in - NNE 4.6 mph - N/A   Clear
5:00 PM 78.8 °F - 59.0 °F 51% 29.80 in - North 9.2 mph - N/A   Clear
6:00 PM 77.0 °F - 59.0 °F 54% 29.83 in - North 6.9 mph - N/A   Clear
7:00 PM 75.2 °F - 53.6 °F 47% 29.83 in - North 13.8 mph - N/A   Clear
8:00 PM 74 °F - 51 °F 33% 29.86 in 6 mi NW 9.2 mph - -  
8:00 PM 73.4 °F - 50.0 °F 44% 29.86 in - NW 9.2 mph - N/A   Clear
9:00 PM 71.6 °F - 51.8 °F 50% 29.86 in - WNW 10.4 mph - N/A   Clear
10:00 PM 71.6 °F - 55.4 °F 57% 29.86 in - NW 11.5 mph - N/A   Clear
11:00 PM 69.8 °F - 57.2 °F 64% 29.86 in - WNW 9.2 mph - N/A   Clear